Location: *
(44.3526°S, 44.9014°W)
Time: 23:57:53
(UTC+00:00)

Cosmos 1461 - Pass Details

Date: 13 May 2025
Orbit: 447 x 543 km, 65.0° (Epoch: 14 June)

Event Time Altitude Azimuth Distance (km) Brightness Sun altitude
Rises 20:14:24 0° 314° (NW) 2,645 7.7 -5.8°
Reaches altitude 10° 20:16:39 10° 308° (NW) 1,748 6.8 -6.2°
Maximum altitude 20:20:27 50° 232° (SW) 660 3.5 -6.8°
Drops below altitude 10° 20:24:11 10° 155° (SSE) 1,708 4.9 -7.4°
Enters shadow 20:25:38 - 151° (SSE) 2,288 5.5 -7.7°
